OBJECT L, 58472

Orbit data source: Space-Track

You're viewing an Uncataloged Satellite

Recently launched and/or uncataloged satellites may have evolving metadata. Metadata may include but not limited to: Owner, Maufacturer, Bus, Motor, and Mission.

OBJECT L, 58472 is a satellite in SSO that was launched on Fri, 01 Dec 2023 UTC via an FALCON 9 launch vehicle from the Air Force Western Test Range (AFWTR). Unknown objects in Earth's orbit typically refer to objects detected orbiting the Earth but have not yet been identified or cataloged. These objects could be anything from previously untracked satellites, spent rocket stages, debris from satellite collisions, or even natural meteoroids temporarily captured by Earth's gravity.

Loading next visibility...
Identifier
58472, 2023-185L
Orbit
SSO
Last TLE update
8 hours ago
Origin
Flag of TBDUniversity College Dublin (TBD)
Manufacturer
UC Dublin
Mission
Operational Amateur Science
Bus & Motor
CUBESAT 2U, Unknown motor
Mass
2 kg wet, 2 kg dry
Launch date (UTC)
2023-12-01 (2 years ago)
Launch vehicle
FALCON 9
Launch site
Air Force Western Test Range (AFWTR)
Object type
Unknown
Shape & HBR
Box, 0.2 m
Radar Cross Section
0.025 m², Medium (>0.1 m² and < 1m²)

Expand to show TLE details & history

TLE from 8 hours ago
0 OBJECT L
1 58472U 23185L   25192.18005372  .00102659  00000-0  70981-3 0  9991
2 58472  97.3656 270.9100 0003400 281.0230  79.0652 15.74217918 90122
Epoch: 2025-07-11T04:19Z
TLE epoch observation values (Epoch: 2025-07-11T04:19:16.641Z)
Latitude
-0.00001°
Longitude
-83.24502°
Altitude
349.589 km
Speed
7.699 km/s
True Right ascension
18h 03m 38s
True Declination
0° 00' 00"
Sunlit
Object was in full shadow at epoch
Visualization orbit readout
Latitude
20.4869°
Longitude
-85.6572°
Altitude
349.874 km
Speed
7.701 km/s
Apparent Right ascension
15h 32m 40s
Apparent Declination
-11° 37' 01"
Sunlit
Object is in full shadow
Visualization observer readout
Local Sidereal Time
00:20:18
Azimuth
290.001° WNW
Elevation
-39.123°
Doppler factor
1
Orbital elements
Apogee altitude
346.035 km
Perigee altitude
341.464 km
Semi-major axis
6,721.887 km
Eccentricity
0.00034
Inclination
97.3656°
RAAN
270.91°
Arg. of periapsis
281.023°
True anomaly
Unknown
Mean anomaly
79.0652°
Eccentric anomaly
Unknown
Mean motion
3.93828 °/min
Orbital period
91.41 mins
BSTAR
0.00070981
Loading maneuver chart data...
Loading SW <> Apogee altitude chart data...
Loading historical data...
Loading historical data...
Loading historical data...
Loading historical data...
Loading historical data...
Loading historical data...
Loading historical data...

OBJECT L Visibility forecast

Observer location: undefined°, undefined°

Span
Click to sort rows by Start time (UTC) header in descending order
Start Az.
Max El. time (UTC)
Max El. Az.
Max El.
End time (UTC)
End Az.
4 mins2025-07-11 18:36:09.901Z345.365° N2025-07-11 18:38:09.901Z290.029° WNW25.839°2025-07-11 18:40:09.901Z229.742° WSW
|